Wind_Speed
25 25 26 27 29 31 33 34 35 33 33 34 36 37 37 39 41 42 44 46 49 51 53 53 54 54 54 54 53 53 52 52 49 47 46 45 45 44 43 42 42 41 40 38
25 25 27 27 27 29 31 32 33 33 32 32 36 36 38 39 40 42 44 46 48 50 50 51 51 53 53 53 52 52 51 50 50 49 47 46 45 44 44 43 42 42 41 39
27 25 27 27 24 25 29 31 33 34 31 32 35 36 37 38 39 40 43 45 47 49 50 49 50 52 52 52 51 51 51 50 50 49 47 46 45 44 43 42 42 41 39 38
26 26 27 23 22 23 26 30 33 34 33 34 35 36 36 37 37 38 41 44 47 48 49 48 49 50 51 51 51 51 51 50 49 49 48 46 45 44 43 41 40 38 37 37
24 25 26 23 21 22 25 28 31 32 32 34 35 36 36 37 37 37 39 44 47 48 49 48 49 50 51 51 50 50 50 49 49 48 47 46 45 43 41 40 38 37 37 37
25 26 26 21 21 24 26 28 29 30 31 33 35 36 35 37 37 38 38 41 45 46 48 48 49 49 50 51 50 50 50 49 48 47 46 45 44 41 40 38 37 37 37 36
25 26 25 20 22 25 27 27 28 31 31 32 34 35 35 37 36 36 38 39 43 44 47 48 48 48 48 49 49 49 49 48 47 47 46 44 43 41 39 39 38 37 36 35
24 25 24 21 22 25 27 28 30 31 31 32 34 36 37 37 36 36 38 39 41 44 46 47 47 47 47 47 48 48 48 48 47 46 45 43 42 40 39 39 37 36 35 34
26 25 24 24 24 25 27 29 31 33 33 33 34 36 37 37 36 36 39 40 41 42 44 45 47 47 46 47 48 48 48 47 46 45 44 42 41 40 38 37 36 35 34 33
28 26 26 26 26 26 27 29 31 32 33 34 35 36 38 38 36 36 38 38 40 42 43 43 44 45 46 47 48 48 47 46 45 43 42 41 40 38 37 35 34 34 34 33
28 26 28 27 27 27 28 29 31 32 32 33 35 37 38 38 37 35 37 38 39 40 40 41 42 43 45 46 47 47 46 46 44 43 41 40 38 37 36 35 33 32 32 32
26 25 26 25 27 28 29 30 31 32 32 33 34 36 38 39 38 37 37 38 39 40 39 40 41 42 43 44 45 45 45 44 43 42 41 40 38 36 35 34 33 32 32 32
27 26 26 25 26 27 28 30 31 33 33 33 34 36 38 39 39 39 38 38 38 39 39 39 40 42 42 42 43 43 43 42 42 41 40 38 36 34 33 33 33 32 32 31
27 26 26 26 26 26 28 30 31 32 33 34 34 35 38 40 41 40 40 39 38 38 39 39 40 41 42 42 42 43 43 42 41 40 39 37 35 34 33 32 32 31 31 30
26 26 26 26 26 27 28 29 30 31 32 33 35 35 37 39 41 41 41 41 40 39 39 40 40 41 42 42 42 41 41 40 39 38 37 36 34 33 33 32 32 31 30 29
25 26 26 26 27 27 28 29 30 31 32 32 33 35 37 38 40 41 41 41 41 40 40 41 41 41 41 41 41 40 39 38 38 36 35 35 34 33 31 31 31 30 29 28
24 25 26 27 26 27 29 29 30 32 33 33 34 35 36 37 38 40 40 39 40 40 40 40 41 41 41 40 40 39 39 37 36 35 34 33 33 32 30 30 29 28 27 27
22 22 23 24 25 25 27 29 29 30 31 33 35 35 36 37 38 39 39 40 39 38 38 38 39 40 40 39 38 38 37 37 36 34 33 33 32 31 29 28 27 27 26 26
20 20 19 20 21 22 23 26 27 29 31 33 34 34 35 36 37 38 39 39 39 38 38 38 38 39 38 38 38 37 37 37 36 35 34 33 31 29 28 27 27 27 26 25
18 18 18 18 19 19 21 23 25 27 29 31 33 34 35 36 37 38 38 38 38 37 38 38 38 39 38 37 37 37 36 36 35 34 32 31 30 29 28 27 27 26 25 24
17 17 16 16 17 17 19 22 24 25 27 29 31 32 36 36 36 36 37 37 37 38 38 38 39 38 37 36 36 36 35 34 32 32 31 30 29 29 28 27 26 25 24 23
14 13 14 14 14 15 17 20 23 25 27 28 29 32 34 35 35 36 36 36 37 37 37 37 37 37 37 36 35 35 33 33 32 31 30 29 28 28 27 26 25 24 23 22
11 11 12 13 14 14 16 18 22 26 28 29 30 31 32 33 34 34 36 37 37 37 37 36 36 36 36 35 34 33 32 31 31 31 30 28 27 26 25 25 24 23 22 22
8 10 12 12 12 13 15 18 22 25 28 29 30 30 31 31 33 34 35 36 36 36 36 36 36 36 35 33 33 31 31 30 30 30 29 28 27 26 25 24 23 22 22 22
8 9 10 10 10 12 15 19 23 25 28 29 29 29 30 31 32 33 34 34 35 34 34 34 33 33 33 33 32 32 31 30 29 29 28 27 25 24 24 23 23 22 22 21
8 9 10 10 11 13 16 20 23 25 26 27 27 28 28 30 31 32 33 34 34 34 33 33 32 32 32 32 32 31 30 29 28 28 26 25 24 23 23 23 22 22 21 21
9 10 11 12 13 15 17 20 22 24 25 26 26 27 28 30 31 31 32 33 33 33 32 32 31 31 31 30 29 29 28 28 27 25 25 24 23 23 23 22 21 20 20 20
Wind_Direction
260 257 251 245 242 241 240 242 244 242 239 229 225 222 219 218 217 216 217 217 216 216 218 219 219 218 219 221 222 223 224 226 228 230 231 232 234 236 239 242 245 248 252 255
260 257 253 248 244 241 241 242 242 241 235 227 224 222 219 217 216 215 216 216 214 214 215 217 219 218 218 219 221 222 223 224 227 229 231 233 235 237 238 241 244 247 250 254
262 259 256 251 247 245 241 241 241 239 234 229 224 222 219 216 213 214 213 213 213 213 213 215 217 218 218 219 220 221 223 224 226 228 230 232 234 236 238 241 244 247 249 253
263 259 255 253 249 245 241 238 238 239 234 229 224 221 219 216 212 211 210 209 211 212 212 214 216 217 218 218 219 220 222 224 226 228 229 230 233 236 238 240 243 246 249 252
265 263 259 253 250 245 240 235 235 236 232 229 225 221 219 217 214 211 209 207 208 210 211 212 215 216 217 217 218 219 221 223 224 226 228 230 232 233 235 239 242 246 249 252
263 267 265 256 249 243 241 239 234 233 231 229 227 223 218 216 213 211 209 206 206 207 209 211 213 215 215 216 217 218 220 221 223 224 226 228 230 231 234 236 240 244 248 251
262 266 267 258 251 244 242 239 234 233 230 227 225 222 218 216 213 211 211 208 206 207 208 210 211 213 214 215 215 217 218 219 220 221 223 225 227 231 233 235 239 242 246 249
262 266 268 261 253 245 242 238 235 231 229 226 224 222 219 217 215 214 213 209 208 208 208 210 212 212 213 214 214 215 217 218 219 220 222 224 226 228 232 235 238 242 245 248
260 263 264 261 257 250 243 239 234 230 228 226 224 222 221 219 217 216 214 211 209 207 208 211 212 212 213 213 214 215 216 217 218 219 220 222 225 228 232 236 239 241 244 248
261 262 262 260 255 250 243 237 233 230 227 225 224 223 221 220 219 217 215 214 213 209 209 211 212 213 214 212 212 213 214 215 216 218 220 223 225 228 231 235 238 241 244 247
261 261 258 254 252 248 242 238 234 230 227 225 224 223 221 219 218 217 216 215 213 210 210 210 211 213 213 212 211 211 212 213 214 217 219 222 224 228 231 235 238 241 244 247
261 259 256 252 249 246 241 236 233 230 227 224 223 222 221 219 217 216 215 214 213 212 210 209 210 210 210 210 210 210 211 212 215 217 219 221 225 228 231 234 237 239 242 246
261 258 255 252 248 245 241 236 233 230 227 223 220 219 219 218 217 217 216 215 213 212 211 209 208 207 207 208 208 209 210 213 215 217 219 222 225 228 231 235 238 240 243 248
258 257 254 251 248 245 242 236 232 229 227 224 219 217 216 215 215 215 215 215 214 212 211 209 206 205 205 207 207 209 210 212 214 216 218 222 225 228 231 235 238 241 244 247
258 257 255 253 249 245 241 236 231 228 224 220 216 214 213 214 214 213 214 214 214 213 211 208 206 205 205 206 207 209 210 212 213 215 217 221 224 227 231 234 236 240 243 245
259 257 257 257 252 245 240 236 231 226 222 218 214 211 211 211 212 211 212 212 212 211 209 207 205 205 205 205 205 207 209 211 212 214 217 221 225 228 231 234 237 240 242 245
262 258 256 255 250 244 238 233 229 225 222 218 213 211 210 209 209 209 209 208 208 208 207 206 205 205 205 205 205 207 209 211 212 214 217 221 224 227 230 234 236 238 242 246
264 262 258 254 246 239 233 229 226 223 220 216 211 209 209 208 207 207 207 207 206 207 207 206 205 206 205 204 205 208 210 212 214 217 219 221 223 226 230 234 237 239 243 248
262 262 258 250 242 237 231 226 223 220 216 213 211 209 206 205 205 205 205 207 208 207 207 206 204 205 205 204 205 208 210 213 216 218 219 221 224 227 231 234 237 240 245 250
262 260 255 245 238 234 230 225 220 216 212 209 208 206 204 203 202 203 204 204 204 204 204 204 203 203 204 204 205 207 210 213 214 217 219 222 225 228 231 235 238 241 245 250
265 260 253 242 234 231 227 222 217 212 208 205 204 202 201 200 200 200 202 202 201 201 201 201 202 204 205 205 206 208 210 211 213 216 219 222 225 227 230 235 238 241 246 251
263 253 242 232 225 222 219 216 210 205 201 198 198 197 197 197 198 199 201 200 199 199 201 201 202 203 204 205 206 208 209 211 214 216 217 220 224 228 231 235 238 242 248 253
256 241 231 225 220 216 213 207 200 195 194 193 193 192 194 195 196 198 199 198 198 199 199 200 200 201 201 202 204 207 210 211 213 214 216 220 223 226 231 234 238 243 248 254
242 228 220 218 216 208 200 195 192 191 192 191 190 191 192 193 193 192 193 195 198 198 197 198 200 201 200 201 203 205 207 209 211 214 216 218 222 227 231 235 240 244 250 254
223 209 206 206 201 192 186 186 185 186 187 187 188 188 189 190 190 191 192 193 192 193 195 196 199 200 200 201 203 205 207 209 212 214 215 219 223 228 232 237 241 247 251 255
207 194 191 189 185 181 181 180 181 184 186 186 185 185 187 187 187 188 190 190 191 192 194 197 198 199 200 201 203 205 208 209 212 214 218 221 224 228 233 238 243 248 252 257
191 184 179 176 171 170 172 173 176 178 179 180 180 181 182 182 183 185 187 187 188 189 191 192 194 196 198 201 203 205 207 209 211 214 218 222 227 230 234 238 243 247 252 258
Height
5460 5460 5461 5463 5465 5467 5468 5470 5472 5478 5482 5490 5495 5499 5505 5511 5518 5526 5534 5541 5549 5558 5567 5576 5585 5594 5604 5613 5621 5630 5638 5646 5654 5660 5666 5672 5677 5682 5687 5691 5695 5698 5700 5702
5453 5454 5453 5454 5457 5459 5461 5464 5466 5469 5474 5481 5486 5491 5496 5502 5509 5517 5525 5533 5541 5549 5558 5567 5576 5584 5594 5602 5611 5619 5627 5636 5643 5650 5656 5662 5668 5673 5677 5681 5685 5688 5691 5693
5446 5447 5445 5447 5452 5453 5455 5457 5459 5461 5468 5473 5477 5482 5488 5494 5501 5508 5516 5524 5532 5540 5549 5558 5566 5575 5583 5592 5601 5609 5617 5625 5632 5639 5645 5652 5657 5662 5667 5672 5675 5678 5681 5684
5438 5439 5438 5445 5444 5445 5447 5449 5451 5454 5459 5463 5468 5474 5480 5486 5493 5500 5507 5515 5522 5531 5539 5548 5556 5565 5573 5582 5590 5599 5607 5615 5622 5629 5636 5642 5647 5653 5658 5662 5665 5669 5672 5674
5431 5430 5431 5436 5438 5438 5439 5442 5444 5447 5451 5456 5461 5466 5472 5479 5485 5492 5499 5506 5514 5521 5530 5538 5547 5555 5563 5572 5580 5588 5597 5604 5612 5619 5626 5632 5638 5643 5648 5652 5656 5660 5663 5665
5425 5424 5424 5431 5431 5431 5432 5434 5438 5440 5444 5448 5453 5459 5466 5471 5477 5484 5491 5498 5505 5513 5521 5529 5537 5545 5554 5562 5571 5579 5587 5595 5602 5609 5616 5623 5629 5634 5638 5643 5647 5650 5653 5656
5418 5417 5418 5423 5423 5424 5426 5429 5431 5433 5436 5440 5445 5452 5458 5463 5470 5476 5483 5490 5497 5505 5513 5521 5529 5537 5545 5554 5562 5570 5577 5585 5592 5599 5606 5613 5619 5624 5629 5633 5637 5641 5645 5647
5411 5411 5414 5416 5415 5416 5418 5420 5422 5425 5429 5433 5438 5443 5449 5455 5461 5468 5475 5482 5489 5497 5505 5512 5520 5529 5537 5546 5553 5561 5568 5576 5583 5590 5597 5603 5609 5615 5620 5624 5628 5632 5636 5638
5405 5406 5407 5407 5407 5408 5410 5411 5414 5417 5421 5425 5430 5436 5442 5448 5454 5461 5468 5474 5481 5489 5497 5504 5512 5520 5529 5537 5544 5552 5559 5567 5574 5582 5588 5595 5601 5606 5611 5616 5620 5624 5627 5630
5395 5397 5398 5399 5399 5401 5402 5403 5406 5409 5413 5417 5422 5428 5434 5440 5447 5454 5460 5467 5474 5481 5489 5497 5504 5512 5520 5528 5535 5543 5551 5559 5566 5573 5580 5586 5592 5598 5603 5607 5612 5615 5619 5621
5387 5389 5389 5390 5391 5392 5393 5395 5398 5401 5405 5409 5414 5420 5426 5433 5440 5446 5452 5459 5466 5474 5481 5489 5496 5504 5511 5519 5527 5535 5543 5551 5558 5565 5572 5578 5584 5590 5595 5600 5604 5607 5610 5613
5378 5380 5379 5381 5382 5383 5385 5387 5390 5393 5397 5402 5407 5412 5418 5425 5432 5439 5446 5452 5459 5466 5474 5482 5489 5496 5504 5511 5519 5527 5535 5543 5551 5557 5564 5570 5576 5581 5586 5591 5595 5599 5602 5604
5369 5370 5371 5372 5373 5375 5376 5379 5382 5385 5390 5394 5400 5405 5411 5417 5424 5431 5438 5445 5452 5459 5466 5474 5482 5489 5497 5505 5513 5521 5529 5536 5543 5550 5557 5563 5569 5574 5579 5583 5587 5590 5593 5596
5360 5361 5361 5363 5364 5366 5368 5371 5374 5377 5381 5386 5391 5397 5403 5409 5417 5424 5431 5438 5445 5452 5460 5467 5475 5483 5491 5498 5506 5514 5521 5529 5536 5543 5550 5556 5562 5567 5571 5576 5580 5583 5586 5588
5352 5352 5352 5354 5356 5357 5359 5362 5365 5369 5373 5378 5383 5389 5395 5402 5409 5416 5424 5431 5438 5446 5453 5461 5469 5477 5484 5492 5500 5508 5515 5522 5529 5536 5542 5549 5554 5559 5564 5568 5572 5575 5578 5580
5344 5344 5344 5345 5347 5349 5351 5354 5357 5362 5366 5370 5376 5382 5388 5395 5402 5409 5417 5424 5432 5439 5447 5455 5463 5471 5478 5486 5493 5501 5509 5516 5523 5530 5536 5542 5547 5552 5556 5560 5564 5567 5570 5573
5335 5336 5336 5337 5338 5340 5342 5345 5349 5354 5358 5363 5369 5375 5381 5388 5395 5403 5410 5418 5426 5433 5441 5449 5457 5464 5472 5480 5488 5495 5503 5510 5517 5523 5529 5535 5541 5546 5550 5553 5557 5560 5563 5565
5328 5328 5328 5328 5329 5331 5334 5337 5341 5346 5351 5355 5361 5367 5374 5382 5389 5397 5404 5412 5420 5428 5436 5444 5451 5459 5467 5475 5483 5490 5497 5504 5511 5517 5523 5529 5534 5539 5543 5547 5550 5553 5555 5558
5322 5321 5321 5322 5323 5325 5328 5331 5335 5339 5344 5349 5355 5362 5368 5376 5383 5391 5398 5406 5415 5423 5431 5439 5446 5454 5462 5470 5477 5485 5492 5499 5505 5511 5517 5523 5528 5532 5536 5540 5543 5546 5549 5551
5316 5315 5316 5316 5318 5319 5322 5325 5329 5333 5338 5343 5349 5356 5363 5370 5378 5386 5394 5402 5410 5418 5426 5433 5441 5449 5457 5465 5472 5479 5486 5493 5500 5506 5511 5517 5521 5526 5530 5533 5537 5540 5542 5544
5311 5310 5311 5311 5313 5315 5317 5320 5323 5328 5332 5338 5345 5351 5359 5366 5374 5381 5389 5398 5406 5413 5421 5429 5437 5445 5453 5460 5467 5475 5481 5488 5495 5500 5506 5511 5515 5519 5523 5527 5530 5533 5536 5538
5306 5306 5306 5307 5309 5311 5313 5315 5319 5323 5328 5334 5341 5347 5355 5362 5370 5378 5386 5394 5401 5409 5417 5425 5433 5441 5448 5456 5463 5470 5477 5483 5489 5495 5500 5505 5509 5513 5517 5521 5524 5527 5529 5531
5302 5302 5303 5304 5306 5308 5310 5312 5316 5321 5326 5332 5339 5346 5352 5359 5367 5375 5382 5390 5398 5406 5414 5422 5429 5437 5444 5452 5459 5465 5472 5478 5483 5489 5494 5499 5503 5507 5511 5514 5517 5520 5523 5525
5299 5299 5300 5301 5303 5305 5308 5310 5314 5319 5325 5331 5337 5344 5351 5357 5364 5372 5379 5387 5395 5403 5411 5418 5425 5433 5440 5447 5454 5460 5467 5473 5478 5483 5488 5493 5497 5501 5505 5508 5511 5514 5516 5518
5296 5297 5298 5300 5302 5304 5307 5310 5314 5319 5324 5330 5337 5343 5349 5356 5363 5370 5377 5385 5392 5400 5408 5415 5422 5429 5436 5443 5450 5456 5462 5468 5473 5478 5483 5488 5492 5496 5499 5502 5505 5508 5510 5511
5295 5296 5297 5299 5301 5303 5306 5310 5314 5319 5325 5330 5336 5342 5348 5354 5361 5368 5375 5383 5391 5398 5406 5413 5420 5426 5433 5440 5446 5452 5457 5463 5468 5473 5478 5482 5486 5490 5494 5497 5499 5501 5503 5504
5294 5295 5297 5299 5301 5304 5307 5311 5315 5320 5325 5331 5337 5342 5348 5354 5361 5368 5375 5382 5389 5397 5404 5411 5417 5424 5430 5437 5442 5448 5453 5459 5464 5468 5473 5477 5481 5485 5488 5490 5493 5495 5496 5497